TimeEST,TemperatureF,Dew PointF,Humidity,Sea Level PressureIn,VisibilityMPH,Wind Direction,Wind SpeedMPH,Gust SpeedMPH,PrecipitationIn,Events,Conditions,WindDirDegrees,DateUTC
12:15 AM,15.8,-5.8,38,29.82,10.0,West,20.7,26.5,N/A,,Clear,270,2013-02-05 05:15:00
12:35 AM,15.8,-5.8,38,29.83,10.0,West,21.9,31.1,N/A,,Clear,270,2013-02-05 05:35:00
12:55 AM,15.8,-5.8,38,29.83,10.0,West,19.6,31.1,N/A,,Clear,280,2013-02-05 05:55:00
1:15 AM,15.8,-5.8,38,29.85,10.0,West,16.1,24.2,N/A,,Clear,280,2013-02-05 06:15:00
1:35 AM,15.8,-5.8,38,29.86,10.0,West,11.5,21.9,N/A,,Clear,280,2013-02-05 06:35:00
1:55 AM,15.8,-7.6,35,29.87,10.0,West,16.1,21.9,N/A,,Clear,270,2013-02-05 06:55:00
2:15 AM,15.8,-7.6,35,29.87,10.0,West,20.7,29.9,N/A,,Clear,260,2013-02-05 07:15:00
2:35 AM,15.8,-7.6,35,29.87,10.0,West,21.9,29.9,N/A,,Clear,270,2013-02-05 07:35:00
2:55 AM,14.0,-5.8,41,29.88,10.0,West,19.6,-,N/A,,Clear,270,2013-02-05 07:55:00
3:15 AM,14.0,-5.8,41,29.88,10.0,West,18.4,24.2,N/A,,Clear,270,2013-02-05 08:15:00
3:35 AM,12.2,-5.8,45,29.89,10.0,West,16.1,25.3,N/A,,Clear,270,2013-02-05 08:35:00
3:55 AM,12.2,-5.8,45,29.90,10.0,West,13.8,-,N/A,,Clear,280,2013-02-05 08:55:00
4:15 AM,12.2,-5.8,45,29.90,10.0,West,12.7,19.6,N/A,,Clear,280,2013-02-05 09:15:00
4:35 AM,12.2,-7.6,41,29.91,10.0,West,11.5,-,N/A,,Clear,270,2013-02-05 09:35:00
4:55 AM,12.2,-5.8,45,29.92,10.0,West,11.5,-,N/A,,Clear,280,2013-02-05 09:55:00
5:15 AM,12.2,-5.8,45,29.92,10.0,West,11.5,-,N/A,,Clear,270,2013-02-05 10:15:00
5:35 AM,12.2,-5.8,45,29.93,10.0,West,13.8,-,N/A,,Clear,260,2013-02-05 10:35:00
5:55 AM,12.2,-7.6,41,29.94,10.0,West,10.4,-,N/A,,Clear,270,2013-02-05 10:55:00
6:15 AM,12.2,-5.8,45,29.95,10.0,West,8.1,-,N/A,,Clear,280,2013-02-05 11:15:00
6:35 AM,10.4,-7.6,44,29.95,10.0,West,8.1,-,N/A,,Clear,280,2013-02-05 11:35:00
6:55 AM,10.4,-5.8,48,29.97,10.0,West,8.1,-,N/A,,Clear,280,2013-02-05 11:55:00
7:15 AM,10.4,-7.6,44,29.98,10.0,West,4.6,-,N/A,,Clear,280,2013-02-05 12:15:00
7:35 AM,10.4,-7.6,44,29.99,10.0,West,4.6,-,N/A,,Clear,280,2013-02-05 12:35:00
7:55 AM,10.4,-5.8,48,30.00,10.0,West,6.9,-,N/A,,Clear,280,2013-02-05 12:55:00
8:15 AM,12.2,-7.6,41,30.00,10.0,West,9.2,-,N/A,,Clear,280,2013-02-05 13:15:00
8:35 AM,12.2,-7.6,41,30.01,10.0,WNW,11.5,-,N/A,,Clear,290,2013-02-05 13:35:00
8:56 AM,14.0,-5.8,41,30.01,10.0,WNW,10.4,-,N/A,,Clear,290,2013-02-05 13:56:00
9:15 AM,15.8,-5.8,38,30.01,10.0,West,9.2,-,N/A,,Clear,270,2013-02-05 14:15:00
9:35 AM,14.0,-5.8,41,30.02,10.0,West,8.1,-,N/A,,Clear,280,2013-02-05 14:35:00
9:55 AM,15.8,-5.8,38,30.02,10.0,West,11.5,16.1,N/A,,Clear,280,2013-02-05 14:55:00
10:15 AM,15.8,-5.8,38,30.02,10.0,WNW,8.1,-,N/A,,Clear,290,2013-02-05 15:15:00
10:35 AM,17.6,-5.8,35,30.02,10.0,West,6.9,-,N/A,,Clear,280,2013-02-05 15:35:00
10:55 AM,17.6,-5.8,35,30.02,10.0,WSW,6.9,-,N/A,,Clear,250,2013-02-05 15:55:00
11:15 AM,17.6,-4.0,38,30.02,10.0,WSW,3.5,-,N/A,,Clear,250,2013-02-05 16:15:00
11:35 AM,17.6,-5.8,35,30.01,10.0,West,11.5,-,N/A,,Clear,270,2013-02-05 16:35:00
11:55 AM,19.4,-5.8,33,30.00,10.0,West,8.1,-,N/A,,Clear,260,2013-02-05 16:55:00
12:15 PM,19.4,-5.8,33,29.99,10.0,West,5.8,-,N/A,,Clear,280,2013-02-05 17:15:00
12:35 PM,19.4,-4.0,36,29.99,10.0,SW,6.9,-,N/A,,Clear,230,2013-02-05 17:35:00
12:55 PM,21.2,-5.8,30,29.99,10.0,West,10.4,-,N/A,,Clear,260,2013-02-05 17:55:00
1:15 PM,21.2,-5.8,30,29.98,10.0,WSW,10.4,-,N/A,,Clear,240,2013-02-05 18:15:00
1:35 PM,21.2,-5.8,30,29.99,10.0,WSW,9.2,-,N/A,,Clear,250,2013-02-05 18:35:00
1:55 PM,21.2,-5.8,30,29.99,10.0,West,10.4,-,N/A,,Clear,270,2013-02-05 18:55:00
2:15 PM,21.2,-5.8,30,29.99,10.0,West,8.1,-,N/A,,Clear,270,2013-02-05 19:15:00
2:35 PM,21.2,1.4,42,29.99,10.0,South,6.9,-,N/A,,Clear,190,2013-02-05 19:35:00
2:55 PM,21.2,-2.2,36,29.99,10.0,SSE,5.8,-,N/A,,Clear,160,2013-02-05 19:55:00
3:15 PM,21.2,1.4,42,29.99,10.0,SE,5.8,-,N/A,,Clear,140,2013-02-05 20:15:00
3:35 PM,21.2,-0.4,39,29.99,10.0,SSE,3.5,-,N/A,,Clear,150,2013-02-05 20:35:00
3:55 PM,21.2,1.4,42,29.99,10.0,South,5.8,-,N/A,,Clear,170,2013-02-05 20:55:00
4:15 PM,21.2,-0.4,39,29.99,10.0,SE,4.6,-,N/A,,Clear,140,2013-02-05 21:15:00
4:35 PM,19.4,1.4,46,29.99,10.0,ESE,6.9,-,N/A,,Clear,120,2013-02-05 21:35:00
4:55 PM,19.4,-0.4,42,29.99,10.0,ESE,4.6,-,N/A,,Clear,120,2013-02-05 21:55:00
5:15 PM,17.6,1.4,49,29.99,10.0,ESE,3.5,-,N/A,,Clear,120,2013-02-05 22:15:00
5:35 PM,17.6,-0.4,45,29.99,10.0,ESE,3.5,-,N/A,,Clear,110,2013-02-05 22:35:00
5:55 PM,15.8,-0.4,49,29.99,10.0,Calm,Calm,-,N/A,,Clear,0,2013-02-05 22:55:00
6:15 PM,15.8,1.4,53,30.00,10.0,Calm,Calm,-,N/A,,Clear,0,2013-02-05 23:15:00
6:35 PM,12.2,1.4,62,30.00,10.0,Calm,Calm,-,N/A,,Clear,0,2013-02-05 23:35:00
6:55 PM,12.2,5.0,73,30.00,10.0,Calm,Calm,-,N/A,,Clear,0,2013-02-05 23:55:00
7:15 PM,12.2,3.2,67,29.99,10.0,Calm,Calm,-,N/A,,Clear,0,2013-02-06 00:15:00
7:35 PM,12.2,3.2,67,29.98,10.0,Calm,Calm,-,N/A,,Clear,0,2013-02-06 00:35:00
7:55 PM,10.4,1.4,67,29.99,10.0,Calm,Calm,-,N/A,,Clear,0,2013-02-06 00:55:00
8:15 PM,12.2,5.0,73,30.00,10.0,Calm,Calm,-,N/A,,Clear,0,2013-02-06 01:15:00
8:35 PM,12.2,-0.4,57,30.00,10.0,Calm,Calm,-,N/A,,Clear,0,2013-02-06 01:35:00
8:55 PM,12.2,6.8,79,30.00,10.0,Calm,Calm,-,N/A,,Clear,0,2013-02-06 01:55:00
9:15 PM,12.2,3.2,67,30.00,10.0,Calm,Calm,-,N/A,,Clear,0,2013-02-06 02:15:00
9:35 PM,12.2,6.8,79,30.00,10.0,Calm,Calm,-,N/A,,Clear,0,2013-02-06 02:35:00
9:55 PM,12.2,6.8,79,29.99,10.0,Calm,Calm,-,N/A,,Clear,0,2013-02-06 02:55:00
10:15 PM,15.8,8.6,73,29.99,10.0,Calm,Calm,-,N/A,,Clear,0,2013-02-06 03:15:00
10:35 PM,14.0,8.6,79,29.99,10.0,Calm,Calm,-,N/A,,Clear,0,2013-02-06 03:35:00
10:55 PM,17.6,6.8,63,29.99,10.0,NNE,3.5,-,N/A,,Clear,30,2013-02-06 03:55:00
11:15 PM,19.4,10.4,68,29.99,10.0,NNE,5.8,-,N/A,,Clear,30,2013-02-06 04:15:00
11:35 PM,19.4,8.6,63,29.99,10.0,NNE,5.8,-,N/A,,Clear,30,2013-02-06 04:35:00
11:55 PM,19.4,8.6,63,29.99,10.0,NNE,5.8,-,N/A,,Clear,30,2013-02-06 04:55:00